Regional Weather Roundup
Issued by NWS

Home | Current Version | Previous Version | Graphics & Text | Print | Product List | Glossary On
Versions: 1 2 3 4 5 6 7 8 9 10 11 12 13 14 15 16 17 18 19 20 21 22 23 24 25 26 27 28 29 30 31 32 33 34 35 36 37 38 39 40 41 42 43 44 45 46 47 48 49 50
000
ASUS43 KOAX 011910
RWRNE

WEATHER ROUNDUP FOR NEBRASKA
NATIONAL WEATHER SERVICE OMAHA NE
100 PM CST SUN FEB 01 2015

NOTES: SATELLITE DATA IS BEING USED TO AUGMENT CLOUD COVER ABOVE
       12000 FEET.
       "FAIR" INDICATES FEW OR NO CLOUDS BELOW 12,000 FEET WITH NO
       SIGNIFICANT WEATHER AND/OR OBSTRUCTIONS TO VISIBILITY.

  * THESE STATIONS DO NOT REPORT WEATHER SUCH AS RAIN...SNOW OR FOG.

NEZ001>004-019>022-054>056-012000-
NEBRASKA PANHANDLE

CITY           SKY/WX    TMP DP  RH WIND       PRES   REMARKS
SCOTTSBLUFF    PTSUNNY   19   8  62 N22       30.26F WCI   2
ALLIANCE       PTSUNNY    8   1  73 N15       30.26F WCI  -9
CHADRON        PTSUNNY    9   2  73 NE3       30.35F
KIMBALL        CLOUDY    18  10  73 N17G26    30.17S WCI   2
SIDNEY         FLURRIES  15   9  76 N21G28    30.23S WCI  -2
$$

NEZ057>060-069>072-079>082-012000-
SOUTHWEST NEBRASKA

CITY           SKY/WX    TMP DP  RH WIND       PRES   REMARKS
NORTH PLATTE   PTSUNNY   10   0  63 N29G36    30.27R WCI -12
IMPERIAL       MOSUNNY   13   4  67 N29G35    30.26F WCI  -8
LEXINGTON      LGT SNOW  11   5  75 N30G36    30.24S WCI -11
MCCOOK         PTSUNNY   16   6  65 NW24      30.27S WCI  -2
OGALLALA       SUNNY     11   3  69 N23G30    30.29S WCI  -8
$$

NEZ005>010-023>029-035>040-094-012000-
NORTH CENTRAL NEBRASKA

CITY           SKY/WX    TMP DP  RH WIND       PRES   REMARKS
VALENTINE      MIX PCPN   4  -4  69 N16G26    30.34S WCI -15
AINSWORTH      CLOUDY     3  -3  75 NW22G28   30.30S HAZE    WCI -19
BROKEN BOW     LGT SNOW   8   1  73 N30G37    30.23S WCI -15
O`NEILL        LGT SNOW   5   0  81 NW28      30.28S WCI -18
ORD            LGT SNOW   6  -1  73 N24G32    30.24S VSB 1   WCI -16
THEDFORD       MOSUNNY    7   0  74 NW17G23   30.28S WCI -12
$$

NEZ041-046>049-061>064-073>077-083>087-012000-
SOUTH CENTRAL NEBRASKA

CITY           SKY/WX    TMP DP  RH WIND       PRES   REMARKS
GRAND ISLAND   LGT SNOW   8   2  76 N32G38    30.21R VSB 3/4 WCI -16
AURORA         SNOW       8   5  85 N28G35    30.18S VSB 1/2 WCI -14
HASTINGS       HVY SNOW  10   5  80 N31       30.18R VSB 1/4 WCI -13
HEBRON         LGT SNOW  11   6  79 N20       30.15R VSB 3/4 WCI  -7
HOLDREGE       CLOUDY    12   6  78 N23G30    30.20S HAZE    WCI  -7
KEARNEY *      CLOUDY     9   3  78 N31       30.20S VSB 1   WCI -14
YORK           SNOW       7   3  85 N21G36    30.16S VSB 1/2 WCI -13
$$

NEZ011>018-030>034-042>045-012000-
NORTHEAST NEBRASKA

CITY           SKY/WX    TMP DP  RH WIND       PRES   REMARKS
NORFOLK        LGT SNOW   5  -1  76 N28G40    30.20S VSB 3/4 WCI -18
ALBION         LGT SNOW   6  -1  72 N21G33    30.21R WCI -15
BLAIR          SNOW      16  11  82 N26G39    30.06R VSB 1/2 WCI  -3
FREMONT        FOG       13   9  84 NW20G35   30.14R VSB 3/4 WCI  -5
TEKAMAH        HAZE      15  10  80 N30G38    30.13R VSB 1/2 WCI  -5
WAYNE          LGT SNOW   8   3  78 N29G37    30.21R VSB 1   WCI -14
$$

NEZ050>053-065>068-078-088>093-012000-
SOUTHEAST NEBRASKA

CITY           SKY/WX    TMP DP  RH WIND       PRES   REMARKS
LINCOLN        CLOUDY    13   7  77 N29G40    30.13R BLWGSNOWWCI  -8
OMAHA EPPLEY   SNOW      17  13  84 N29G41    30.06R VSB 1/2 WCI  -2
BEATRICE       CLOUDY    13   8  83 N22       30.10R HAZE    WCI  -6
FALLS CITY     LGT SNOW  22  17  81 NW17G33   29.97R VSB 1   WCI   8
NEBRASKA CITY  LGT SNOW  18  15  87 N26G32    30.00R VSB 3/4 WCI   0
PLATTSMOUTH    LGT SNOW  18  13  82 NW21G28   30.02R WCI   1
$$

NEZ044-045-051>053-067-012000-
OMAHA AREA

CITY           SKY/WX    TMP DP  RH WIND       PRES   REMARKS
OMAHA EPPLEY   SNOW      17  13  84 N29G41    30.06R VSB 1/2 WCI  -2
BLAIR          SNOW      16  11  82 N26G39    30.06R VSB 1/2 WCI  -3
FREMONT        FOG       13   9  84 NW20G35   30.14R VSB 3/4 WCI  -5
MILLARD        LGT SNOW  17  12  79 N9        30.09R VSB 1   WCI   6
OFFUTT AFB     LGT SNOW  18  13  82 NW16G26   30.05R VSB 1   WCI   3
PLATTSMOUTH    LGT SNOW  18  13  82 NW21G28   30.02R WCI   1
WAHOO          SNOW      12   7  81 N39G46    30.12R VSB 1/4 WCI -12
$$



USA.gov is the U.S. government's official web portal to all federal, state and local government web resources and services.